TimeCDT,TemperatureF,Dew PointF,Humidity,Sea Level PressureIn,VisibilityMPH,Wind Direction,Wind SpeedMPH,Gust SpeedMPH,PrecipitationIn,Events,Conditions,WindDirDegrees,DateUTC
12:53 AM,82.9,77.0,82,29.97,10.0,SW,4.6,-,N/A,,Clear,220,2013-08-07 05:53:00
1:53 AM,82.9,78.1,85,29.96,10.0,WSW,6.9,-,N/A,,Clear,240,2013-08-07 06:53:00
2:53 AM,82.0,77.0,85,29.96,10.0,SW,4.6,-,N/A,,Clear,230,2013-08-07 07:53:00
3:53 AM,81.0,77.0,88,29.96,10.0,Calm,Calm,-,N/A,,Clear,0,2013-08-07 08:53:00
4:53 AM,81.0,77.0,88,29.96,10.0,SW,3.5,-,N/A,,Partly Cloudy,230,2013-08-07 09:53:00
5:53 AM,80.1,77.0,90,29.94,10.0,SW,4.6,-,N/A,,Clear,230,2013-08-07 10:53:00
6:53 AM,81.0,77.0,88,29.94,9.0,WSW,5.8,-,N/A,,Clear,240,2013-08-07 11:53:00
7:53 AM,82.9,78.1,85,29.95,10.0,WSW,5.8,-,N/A,,Partly Cloudy,240,2013-08-07 12:53:00
8:53 AM,84.9,77.0,77,29.97,10.0,WSW,9.2,17.3,N/A,,Partly Cloudy,250,2013-08-07 13:53:00
9:53 AM,88.0,75.9,67,29.98,10.0,SW,11.5,-,N/A,,Mostly Cloudy,230,2013-08-07 14:53:00
10:24 AM,89.6,75.2,62,29.96,10.0,SW,9.2,19.6,N/A,,Scattered Clouds,230,2013-08-07 15:24:00
10:53 AM,89.1,75.0,63,30.01,10.0,Variable,6.9,-,N/A,,Mostly Cloudy,0,2013-08-07 15:53:00
11:04 AM,91.4,73.4,55,29.98,10.0,WSW,5.8,-,N/A,,Mostly Cloudy,250,2013-08-07 16:04:00
11:53 AM,91.9,73.0,54,30.01,10.0,Variable,6.9,-,N/A,,Scattered Clouds,0,2013-08-07 16:53:00
12:53 PM,93.9,73.0,51,29.98,10.0,SW,8.1,-,N/A,,Scattered Clouds,230,2013-08-07 17:53:00
1:53 PM,93.9,71.1,47,29.96,10.0,SSW,9.2,17.3,N/A,,Partly Cloudy,210,2013-08-07 18:53:00
2:53 PM,96.1,70.0,43,29.95,10.0,South,9.2,16.1,N/A,,Clear,190,2013-08-07 19:53:00
3:53 PM,93.9,75.0,54,29.94,10.0,SSW,11.5,-,N/A,,Clear,200,2013-08-07 20:53:00
4:53 PM,93.0,75.0,56,29.92,10.0,SSW,11.5,18.4,N/A,,Clear,200,2013-08-07 21:53:00
5:53 PM,91.0,73.0,55,29.91,10.0,SSW,11.5,-,N/A,,Clear,200,2013-08-07 22:53:00
6:53 PM,89.1,73.0,59,29.91,10.0,SSW,10.4,17.3,N/A,,Clear,210,2013-08-07 23:53:00
7:53 PM,86.0,75.0,70,29.91,10.0,SSW,5.8,-,N/A,,Clear,210,2013-08-08 00:53:00
8:53 PM,82.9,75.0,77,29.93,10.0,SSW,4.6,-,N/A,,Clear,210,2013-08-08 01:53:00
9:53 PM,82.9,75.9,79,29.94,10.0,SSW,4.6,-,N/A,,Clear,210,2013-08-08 02:53:00
10:53 PM,82.0,75.9,82,29.95,10.0,SW,4.6,-,N/A,,Clear,230,2013-08-08 03:53:00
11:53 PM,79.0,75.0,88,29.95,10.0,Calm,Calm,-,N/A,,Clear,0,2013-08-08 04:53:00